Back to catalog

STARLINK-34999

AliveCommunicationsVLEO
NORAD 65222·PAYLOAD·🇺🇸 United States

Launched Aug 14, 2025 from Cape Canaveral Space Force Station

Loading…

Next Passes (next 24 hours)

TLE

FreshSource: CelesTrak SupGP

Epoch: Sep 14, 2026, 22:43 UTC

1 65222C 25176AA  26257.94701389 -.00007587  00000+0 -22422-3 0  2571
2 65222  53.1600 349.9916 0001198  80.4511  80.6253 15.34386922    11

Track STARLINK-34999 in real time with AllMySat

Download on the App Store